Time,TemperatureF,DewpointF,PressureIn,WindDirection,WindDirectionDegrees,WindSpeedMPH,WindSpeedGustMPH,Humidity,HourlyPrecipIn,Conditions,Clouds,dailyrainin,SoftwareType,DateUTC
2013-05-07 00:02:00,64.0,30.0,29.83,SW,225,0.0,0.0,28,0.00,,,0.00,,2013-05-07 06:02:00,
2013-05-07 00:12:00,64.0,30.0,29.83,SW,225,0.0,0.0,28,0.00,,,0.00,,2013-05-07 06:12:00,
2013-05-07 00:22:00,64.0,31.0,29.83,ESE,104,2.0,3.0,29,0.00,,,0.00,,2013-05-07 06:22:00,
2013-05-07 00:32:00,63.0,32.0,29.83,North,0,0.0,0.0,31,0.00,,,0.00,,2013-05-07 06:32:00,
2013-05-07 00:42:00,63.0,32.0,29.83,North,0,0.0,0.0,31,0.00,,,0.00,,2013-05-07 06:42:00,
2013-05-07 00:52:00,63.0,30.0,29.83,West,263,1.0,3.0,29,0.00,,,0.00,,2013-05-07 06:52:00,
2013-05-07 01:02:00,62.0,29.0,29.83,West,264,1.0,1.0,29,0.00,,,0.00,,2013-05-07 07:02:00,
2013-05-07 01:11:00,62.0,29.0,29.83,West,264,1.0,1.0,29,0.00,,,0.00,,2013-05-07 07:11:00,
2013-05-07 01:22:00,62.0,29.0,29.84,WNW,293,0.0,5.0,29,0.00,,,0.00,,2013-05-07 07:22:00,
2013-05-07 01:31:00,62.0,29.0,29.83,West,270,1.0,1.0,29,0.00,,,0.00,,2013-05-07 07:31:00,
2013-05-07 01:42:00,62.0,29.0,29.83,West,270,1.0,1.0,29,0.00,,,0.00,,2013-05-07 07:42:00,
2013-05-07 01:52:00,61.0,29.0,29.83,NNW,338,1.0,1.0,30,0.00,,,0.00,,2013-05-07 07:52:00,
2013-05-07 02:02:00,61.0,29.0,29.83,NE,45,0.0,0.0,30,0.00,,,0.00,,2013-05-07 08:02:00,
2013-05-07 02:11:00,61.0,29.0,29.83,NE,45,0.0,0.0,30,0.00,,,0.00,,2013-05-07 08:11:00,
2013-05-07 02:21:00,60.0,29.0,29.83,West,263,1.0,2.0,31,0.00,,,0.00,,2013-05-07 08:21:00,
2013-05-07 02:31:00,60.0,29.0,29.83,West,270,0.0,2.0,31,0.00,,,0.00,,2013-05-07 08:31:00,
2013-05-07 02:42:00,60.0,29.0,29.83,West,270,0.0,2.0,31,0.00,,,0.00,,2013-05-07 08:42:00,
2013-05-07 02:52:00,59.0,28.0,29.83,North,0,0.0,3.0,31,0.00,,,0.00,,2013-05-07 08:52:00,
2013-05-07 03:01:00,59.0,29.0,29.83,North,0,0.0,0.0,32,0.00,,,0.00,,2013-05-07 09:01:00,
2013-05-07 03:11:00,59.0,29.0,29.83,North,0,0.0,0.0,32,0.00,,,0.00,,2013-05-07 09:11:00,
2013-05-07 03:22:00,58.0,29.0,29.83,NNE,23,0.0,1.0,33,0.00,,,0.00,,2013-05-07 09:22:00,
2013-05-07 03:33:00,56.0,28.0,29.83,East,90,1.0,2.0,34,0.00,,,0.00,,2013-05-07 09:33:00,
2013-05-07 03:42:00,56.0,28.0,29.83,East,90,1.0,2.0,34,0.00,,,0.00,,2013-05-07 09:42:00,
2013-05-07 03:52:00,56.0,29.0,29.82,East,90,0.0,1.0,36,0.00,,,0.00,,2013-05-07 09:52:00,
2013-05-07 04:03:00,55.0,29.0,29.82,ENE,68,0.0,0.0,37,0.00,,,0.00,,2013-05-07 10:03:00,
2013-05-07 04:12:00,55.0,29.0,29.82,ENE,68,0.0,0.0,37,0.00,,,0.00,,2013-05-07 10:12:00,
2013-05-07 04:23:00,54.0,29.0,29.82,NNE,28,0.0,1.0,38,0.00,,,0.00,,2013-05-07 10:23:00,
2013-05-07 04:32:00,54.0,30.0,29.83,SE,135,1.0,1.0,40,0.00,,,0.00,,2013-05-07 10:32:00,
2013-05-07 04:42:00,53.0,30.0,29.82,SE,135,0.0,2.0,41,0.00,,,0.00,,2013-05-07 10:42:00,
2013-05-07 04:52:00,53.0,30.0,29.82,SE,135,0.0,2.0,41,0.00,,,0.00,,2013-05-07 10:52:00,
2013-05-07 05:02:00,53.0,31.0,29.82,SE,135,0.0,3.0,42,0.00,,,0.00,,2013-05-07 11:02:00,
2013-05-07 05:12:00,53.0,31.0,29.82,SE,135,0.0,3.0,42,0.00,,,0.00,,2013-05-07 11:12:00,
2013-05-07 05:22:00,52.0,30.0,29.82,NNW,338,0.0,0.0,42,0.00,,,0.00,,2013-05-07 11:22:00,
2013-05-07 05:32:00,51.0,29.0,29.82,ESE,114,1.0,1.0,43,0.00,,,0.00,,2013-05-07 11:32:00,
2013-05-07 05:42:00,51.0,29.0,29.82,ESE,114,1.0,1.0,43,0.00,,,0.00,,2013-05-07 11:42:00,
2013-05-07 05:52:00,51.0,29.0,29.82,ESE,113,0.0,1.0,43,0.00,,,0.00,,2013-05-07 11:52:00,
2013-05-07 06:02:00,50.0,29.0,29.82,SE,132,1.0,1.0,44,0.00,,,0.00,,2013-05-07 12:02:00,
2013-05-07 06:11:00,50.0,29.0,29.82,SE,132,1.0,1.0,44,0.00,,,0.00,,2013-05-07 12:11:00,
2013-05-07 06:21:00,50.0,29.0,29.83,ESE,113,0.0,1.0,45,0.00,,,0.00,,2013-05-07 12:21:00,
2013-05-07 06:32:00,49.0,29.0,29.83,ESE,113,0.0,0.0,46,0.00,,,0.00,,2013-05-07 12:32:00,
2013-05-07 06:42:00,49.0,29.0,29.83,ESE,113,0.0,0.0,46,0.00,,,0.00,,2013-05-07 12:42:00,
2013-05-07 06:52:00,49.0,30.0,29.83,ESE,113,0.0,0.0,47,0.00,,,0.00,,2013-05-07 12:52:00,
2013-05-07 07:02:00,49.0,30.0,29.83,ESE,113,0.0,0.0,48,0.00,,,0.00,,2013-05-07 13:02:00,
2013-05-07 07:11:00,49.0,30.0,29.83,ESE,113,0.0,0.0,48,0.00,,,0.00,,2013-05-07 13:11:00,
2013-05-07 07:21:00,49.0,31.0,29.84,North,0,0.0,0.0,49,0.00,,,0.00,,2013-05-07 13:21:00,
2013-05-07 07:32:00,50.0,31.0,29.84,NW,315,0.0,1.0,48,0.00,,,0.00,,2013-05-07 13:32:00,
2013-05-07 07:42:00,50.0,31.0,29.84,NW,315,0.0,1.0,48,0.00,,,0.00,,2013-05-07 13:42:00,
2013-05-07 07:52:00,51.0,31.0,29.85,SW,228,2.0,2.0,46,0.00,,,0.00,,2013-05-07 13:52:00,
2013-05-07 08:02:00,52.0,31.0,29.85,NW,315,3.0,3.0,44,0.00,,,0.00,,2013-05-07 14:02:00,
2013-05-07 08:11:00,52.0,31.0,29.85,NW,315,3.0,3.0,44,0.00,,,0.00,,2013-05-07 14:11:00,
2013-05-07 08:21:00,53.0,31.0,29.85,NW,306,1.0,3.0,43,0.00,,,0.00,,2013-05-07 14:21:00,
2013-05-07 08:31:00,54.0,32.0,29.84,WNW,303,1.0,3.0,43,0.00,,,0.00,,2013-05-07 14:31:00,
2013-05-07 08:42:00,54.0,32.0,29.84,WNW,303,1.0,3.0,43,0.00,,,0.00,,2013-05-07 14:42:00,
2013-05-07 08:52:00,55.0,32.0,29.84,WSW,243,1.0,2.0,42,0.00,,,0.00,,2013-05-07 14:52:00,
2013-05-07 09:01:00,56.0,32.0,29.84,West,261,1.0,3.0,40,0.00,,,0.00,,2013-05-07 15:01:00,
2013-05-07 09:12:00,56.0,32.0,29.84,West,261,1.0,3.0,40,0.00,,,0.00,,2013-05-07 15:12:00,
2013-05-07 09:21:00,58.0,33.0,29.84,WNW,298,2.0,3.0,39,0.00,,,0.00,,2013-05-07 15:21:00,
2013-05-07 09:33:00,59.0,33.0,29.84,ESE,121,1.0,2.0,37,0.00,,,0.00,,2013-05-07 15:33:00,
2013-05-07 09:42:00,59.0,33.0,29.84,ESE,121,1.0,2.0,37,0.00,,,0.00,,2013-05-07 15:42:00,
2013-05-07 09:53:00,59.0,33.0,29.84,ESE,121,1.0,2.0,37,0.00,,,0.00,,2013-05-07 15:53:00,
2013-05-07 10:03:00,62.0,33.0,29.84,WSW,242,3.0,4.0,33,0.00,,,0.00,,2013-05-07 16:03:00,
2013-05-07 10:12:00,62.0,33.0,29.84,WSW,242,3.0,4.0,33,0.00,,,0.00,,2013-05-07 16:12:00,
2013-05-07 10:22:00,65.0,33.0,29.84,NNW,341,3.0,4.0,30,0.00,,,0.00,,2013-05-07 16:22:00,
2013-05-07 10:32:00,65.0,33.0,29.84,WNW,298,2.0,4.0,30,0.00,,,0.00,,2013-05-07 16:32:00,
2013-05-07 10:41:00,65.0,33.0,29.84,WNW,298,2.0,4.0,30,0.00,,,0.00,,2013-05-07 16:41:00,
2013-05-07 10:52:00,65.0,33.0,29.84,WNW,298,2.0,4.0,30,0.00,,,0.00,,2013-05-07 16:52:00,
2013-05-07 11:01:00,68.0,35.0,29.84,West,281,2.0,5.0,29,0.00,,,0.00,,2013-05-07 17:01:00,
2013-05-07 11:12:00,68.0,35.0,29.84,West,281,2.0,5.0,29,0.00,,,0.00,,2013-05-07 17:12:00,
2013-05-07 11:21:00,69.0,35.0,29.84,NNW,339,3.0,5.0,28,0.00,,,0.00,,2013-05-07 17:21:00,
2013-05-07 11:31:00,69.0,33.0,29.83,WNW,289,2.0,7.0,26,0.00,,,0.00,,2013-05-07 17:31:00,
2013-05-07 11:41:00,73.0,34.0,29.83,SSE,156,4.0,7.0,24,0.00,,,0.00,,2013-05-07 17:41:00,
2013-05-07 11:52:00,73.0,34.0,29.83,SSE,156,4.0,7.0,24,0.00,,,0.00,,2013-05-07 17:52:00,
2013-05-07 12:01:00,72.0,33.0,29.83,South,175,4.0,9.0,24,0.00,,,0.00,,2013-05-07 18:01:00,
2013-05-07 12:11:00,72.0,33.0,29.83,South,175,4.0,9.0,24,0.00,,,0.00,,2013-05-07 18:11:00,
2013-05-07 12:21:00,73.0,33.0,29.82,NW,321,3.0,6.0,23,0.00,,,0.00,,2013-05-07 18:21:00,
2013-05-07 12:31:00,74.0,34.0,29.81,SSW,202,2.0,9.0,23,0.00,,,0.00,,2013-05-07 18:31:00,
2013-05-07 12:41:00,74.0,34.0,29.81,SSW,202,2.0,9.0,23,0.00,,,0.00,,2013-05-07 18:41:00,
2013-05-07 12:52:00,75.0,35.0,29.81,SE,128,1.0,3.0,23,0.00,,,0.00,,2013-05-07 18:52:00,
2013-05-07 13:02:00,77.0,32.0,29.80,SW,224,4.0,11.0,19,0.00,,,0.00,,2013-05-07 19:02:00,
2013-05-07 13:11:00,77.0,32.0,29.80,SW,224,4.0,11.0,19,0.00,,,0.00,,2013-05-07 19:11:00,
2013-05-07 13:21:00,76.0,32.0,29.79,SE,144,4.0,8.0,20,0.00,,,0.00,,2013-05-07 19:21:00,
2013-05-07 13:32:00,78.0,34.0,29.79,South,189,4.0,9.0,20,0.00,,,0.00,,2013-05-07 19:32:00,
2013-05-07 13:42:00,78.0,34.0,29.79,South,189,4.0,9.0,20,0.00,,,0.00,,2013-05-07 19:42:00,
2013-05-07 13:52:00,78.0,31.0,29.78,East,87,2.0,9.0,18,0.00,,,0.00,,2013-05-07 19:52:00,
2013-05-07 14:02:00,79.0,32.0,29.78,SE,142,2.0,6.0,18,0.00,,,0.00,,2013-05-07 20:02:00,
2013-05-07 14:11:00,79.0,32.0,29.78,SE,142,2.0,6.0,18,0.00,,,0.00,,2013-05-07 20:11:00,
2013-05-07 14:22:00,80.0,33.0,29.78,South,173,3.0,9.0,18,0.00,,,0.00,,2013-05-07 20:22:00,
2013-05-07 14:32:00,80.0,31.0,29.77,SE,134,4.0,7.0,17,0.00,,,0.00,,2013-05-07 20:32:00,
2013-05-07 14:42:00,80.0,31.0,29.77,SE,134,4.0,7.0,17,0.00,,,0.00,,2013-05-07 20:42:00,
2013-05-07 14:52:00,79.0,30.0,29.76,East,88,5.0,10.0,17,0.00,,,0.00,,2013-05-07 20:52:00,
2013-05-07 15:01:00,79.0,30.0,29.75,SSE,164,4.0,9.0,17,0.00,,,0.00,,2013-05-07 21:01:00,
2013-05-07 15:11:00,79.0,30.0,29.75,SSE,164,4.0,9.0,17,0.00,,,0.00,,2013-05-07 21:11:00,
2013-05-07 15:21:00,80.0,28.0,29.74,West,269,3.0,7.0,15,0.00,,,0.00,,2013-05-07 21:21:00,
2013-05-07 15:32:00,81.0,29.0,29.74,SSW,210,4.0,12.0,15,0.00,,,0.00,,2013-05-07 21:32:00,
2013-05-07 15:42:00,81.0,29.0,29.74,SSW,210,4.0,12.0,15,0.00,,,0.00,,2013-05-07 21:42:00,
2013-05-07 15:53:00,82.0,30.0,29.73,South,189,4.0,6.0,15,0.00,,,0.00,,2013-05-07 21:53:00,
2013-05-07 16:02:00,82.0,26.0,29.73,SSE,158,6.0,11.0,13,0.00,,,0.00,,2013-05-07 22:02:00,
2013-05-07 16:13:00,82.0,26.0,29.73,SSE,158,6.0,11.0,13,0.00,,,0.00,,2013-05-07 22:13:00,
2013-05-07 16:22:00,80.0,28.0,29.71,SE,126,5.0,7.0,15,0.00,,,0.00,,2013-05-07 22:22:00,
2013-05-07 16:33:00,81.0,26.0,29.71,SSE,152,5.0,11.0,13,0.00,,,0.00,,2013-05-07 22:33:00,
2013-05-07 16:42:00,82.0,24.0,29.70,South,183,7.0,9.0,12,0.00,,,0.00,,2013-05-07 22:42:00,
2013-05-07 16:52:00,82.0,24.0,29.70,South,183,7.0,9.0,12,0.00,,,0.00,,2013-05-07 22:52:00,
2013-05-07 17:02:00,80.0,27.0,29.69,South,189,6.0,11.0,14,0.00,,,0.00,,2013-05-07 23:02:00,
2013-05-07 17:12:00,80.0,27.0,29.69,South,189,6.0,11.0,14,0.00,,,0.00,,2013-05-07 23:12:00,
2013-05-07 17:21:00,81.0,29.0,29.69,SSE,152,6.0,9.0,15,0.00,,,0.00,,2013-05-07 23:21:00,
2013-05-07 17:32:00,81.0,29.0,29.68,SE,133,5.0,9.0,15,0.00,,,0.00,,2013-05-07 23:32:00,
2013-05-07 17:41:00,81.0,29.0,29.68,SSW,196,5.0,11.0,15,0.00,,,0.00,,2013-05-07 23:41:00,
2013-05-07 17:52:00,81.0,29.0,29.68,SSW,196,5.0,11.0,15,0.00,,,0.00,,2013-05-07 23:52:00,
2013-05-07 18:01:00,78.0,27.0,29.68,SW,229,4.0,12.0,15,0.00,,,0.00,,2013-05-08 00:01:00,
2013-05-07 18:11:00,78.0,27.0,29.68,SW,229,4.0,12.0,15,0.00,,,0.00,,2013-05-08 00:11:00,
2013-05-07 18:21:00,78.0,27.0,29.68,WSW,242,3.0,8.0,15,0.00,,,0.00,,2013-05-08 00:21:00,
2013-05-07 18:32:00,76.0,25.0,29.69,SSW,205,3.0,11.0,15,0.00,,,0.00,,2013-05-08 00:32:00,
2013-05-07 18:42:00,75.0,27.0,29.70,WSW,246,10.0,13.0,17,0.00,,,0.00,,2013-05-08 00:42:00,
2013-05-07 18:52:00,75.0,27.0,29.70,WSW,246,10.0,13.0,17,0.00,,,0.00,,2013-05-08 00:52:00,
2013-05-07 19:02:00,74.0,28.0,29.71,SSW,213,6.0,13.0,18,0.00,,,0.00,,2013-05-08 01:02:00,
2013-05-07 19:11:00,74.0,28.0,29.71,SSW,213,6.0,13.0,18,0.00,,,0.00,,2013-05-08 01:11:00,
2013-05-07 19:21:00,74.0,29.0,29.70,West,261,7.0,10.0,19,0.00,,,0.00,,2013-05-08 01:21:00,
2013-05-07 19:32:00,73.0,31.0,29.71,SSW,200,8.0,9.0,21,0.00,,,0.00,,2013-05-08 01:32:00,
2013-05-07 19:42:00,72.0,31.0,29.71,SE,144,4.0,7.0,22,0.00,,,0.00,,2013-05-08 01:42:00,
2013-05-07 19:52:00,72.0,31.0,29.71,SE,144,4.0,7.0,22,0.00,,,0.00,,2013-05-08 01:52:00,
2013-05-07 20:01:00,70.0,32.0,29.71,SE,144,8.0,16.0,24,0.00,,,0.00,,2013-05-08 02:01:00,
2013-05-07 20:12:00,70.0,32.0,29.71,SE,144,8.0,16.0,24,0.00,,,0.00,,2013-05-08 02:12:00,
2013-05-07 20:22:00,69.0,32.0,29.71,SSE,148,5.0,12.0,25,0.00,,,0.00,,2013-05-08 02:22:00,
2013-05-07 20:31:00,68.0,31.0,29.72,SE,133,4.0,8.0,25,0.00,,,0.00,,2013-05-08 02:31:00,
2013-05-07 20:42:00,68.0,31.0,29.70,SE,125,7.0,13.0,25,0.00,,,0.00,,2013-05-08 02:42:00,
2013-05-07 20:52:00,68.0,31.0,29.70,SE,125,7.0,13.0,25,0.00,,,0.00,,2013-05-08 02:52:00,
2013-05-07 21:01:00,68.0,30.0,29.70,SE,133,6.0,11.0,24,0.00,,,0.00,,2013-05-08 03:01:00,
2013-05-07 21:11:00,68.0,30.0,29.70,SE,133,6.0,11.0,24,0.00,,,0.00,,2013-05-08 03:11:00,
2013-05-07 21:21:00,68.0,30.0,29.70,ESE,119,5.0,9.0,24,0.00,,,0.00,,2013-05-08 03:21:00,
2013-05-07 21:32:00,67.0,30.0,29.70,SE,127,4.0,9.0,25,0.00,,,0.00,,2013-05-08 03:32:00,
2013-05-07 21:43:00,67.0,30.0,29.70,SE,127,4.0,9.0,25,0.00,,,0.00,,2013-05-08 03:43:00,
2013-05-07 21:52:00,67.0,30.0,29.71,ESE,108,4.0,11.0,25,0.00,,,0.00,,2013-05-08 03:52:00,
2013-05-07 22:02:00,66.0,29.0,29.71,SE,127,5.0,9.0,25,0.00,,,0.00,,2013-05-08 04:02:00,
2013-05-07 22:13:00,66.0,29.0,29.71,SE,127,5.0,9.0,25,0.00,,,0.00,,2013-05-08 04:13:00,
2013-05-07 22:23:00,66.0,28.0,29.71,SE,124,3.0,7.0,24,0.00,,,0.00,,2013-05-08 04:23:00,
2013-05-07 22:33:00,66.0,27.0,29.71,SE,125,3.0,7.0,23,0.00,,,0.00,,2013-05-08 04:33:00,
2013-05-07 22:42:00,66.0,27.0,29.71,SE,125,3.0,7.0,23,0.00,,,0.00,,2013-05-08 04:42:00,
2013-05-07 22:53:00,65.0,26.0,29.71,SE,142,4.0,7.0,23,0.00,,,0.00,,2013-05-08 04:53:00,
2013-05-07 23:02:00,65.0,26.0,29.72,WNW,282,4.0,7.0,23,0.00,,,0.00,,2013-05-08 05:02:00,
2013-05-07 23:12:00,65.0,26.0,29.72,WNW,282,4.0,7.0,23,0.00,,,0.00,,2013-05-08 05:12:00,
2013-05-07 23:22:00,64.0,27.0,29.72,ESE,114,1.0,5.0,25,0.00,,,0.00,,2013-05-08 05:22:00,
2013-05-07 23:32:00,63.0,27.0,29.72,ESE,113,0.0,1.0,25,0.00,,,0.00,,2013-05-08 05:32:00,
2013-05-07 23:42:00,63.0,27.0,29.72,ESE,113,0.0,1.0,25,0.00,,,0.00,,2013-05-08 05:42:00,
2013-05-07 23:52:00,62.0,28.0,29.73,ESE,121,1.0,1.0,27,0.00,,,0.00,,2013-05-08 05:52:00,